• En España
  • Lista de países
  • Para 7 días
  • Temperatura del agua
  • Mapa Satelital
  • El tiempo en el mapa
  • Informadores
  • user-avatar
    Iniciar sesión

    Tiempo cada hora Irenskiy

    Hoy, 14 Agosto, Martes

    Tiempo Temperatura Precipitaciones Viento Presión Humedad
    00:00 +18°C° 0,1 mm 2 mps 744 mmHg 93%
    01:00 +18°C° 0,1 mm 2 mps 744 mmHg 95%
    02:00 +17°C° 0,1 mm 2 mps 744 mmHg 95%
    03:00 +17°C° 0,1 mm 2 mps 744 mmHg 96%
    04:00 +18°C° 0 mm 1 mps 744 mmHg 97%
    05:00 +19°C° 0,3 mm 1 mps 744 mmHg 95%
    06:00 +19°C° 0,3 mm 1 mps 744 mmHg 94%
    07:00 +20°C° 0,3 mm 1 mps 744 mmHg 92%
    08:00 +21°C° 0,5 mm 1 mps 744 mmHg 85%
    09:00 +23°C° 0,5 mm 2 mps 744 mmHg 78%
    10:00 +24°C° 0 mm 2 mps 745 mmHg 74%
    11:00 +24°C° 0,8 mm 2 mps 745 mmHg 73%
    12:00 +24°C° 0,8 mm 3 mps 744 mmHg 71%
    13:00 +24°C° 0,8 mm 3 mps 744 mmHg 70%
    14:00 +22°C° 0,4 mm 3 mps 745 mmHg 70%
    15:00 +22°C° 0,4 mm 3 mps 745 mmHg 70%
    16:00 +21°C° 0 mm 3 mps 745 mmHg 70%
    17:00 +20°C° 0,1 mm 2 mps 745 mmHg 75%
    18:00 +18°C° 0,1 mm 2 mps 745 mmHg 80%
    19:00 +17°C° 0,1 mm 2 mps 746 mmHg 85%
    20:00 +16°C° 0 mm 2 mps 746 mmHg 86%
    21:00 +16°C° 0 mm 2 mps 746 mmHg 87%
    22:00 +15°C° 0 mm 2 mps 746 mmHg 88%
    23:00 +14°C° 0 mm 2 mps 746 mmHg 90%

    Mañana, 15 Agosto, Miércoles

    Tiempo Temperatura Precipitaciones Viento Presión Humedad
    00:00 +14°C° 0 mm 2 mps 746 mmHg 92%
    01:00 +13°C° 0 mm 2 mps 747 mmHg 94%
    02:00 +13°C° 0 mm 2 mps 747 mmHg 95%
    03:00 +13°C° 0 mm 2 mps 747 mmHg 95%
    04:00 +12°C° 0 mm 2 mps 747 mmHg 96%
    05:00 +13°C° 0 mm 2 mps 747 mmHg 93%
    06:00 +13°C° 0 mm 3 mps 747 mmHg 91%
    07:00 +14°C° 0 mm 3 mps 748 mmHg 88%
    08:00 +16°C° 0 mm 3 mps 748 mmHg 80%
    09:00 +18°C° 0 mm 3 mps 748 mmHg 72%
    10:00 +19°C° 0 mm 4 mps 748 mmHg 65%
    11:00 +20°C° 0 mm 4 mps 748 mmHg 61%
    12:00 +21°C° 0 mm 4 mps 748 mmHg 58%
    13:00 +22°C° 0 mm 4 mps 748 mmHg 55%
    14:00 +22°C° 0 mm 4 mps 748 mmHg 55%
    15:00 +22°C° 0 mm 4 mps 748 mmHg 55%
    16:00 +22°C° 0 mm 4 mps 748 mmHg 55%
    17:00 +21°C° 0 mm 3 mps 749 mmHg 61%
    18:00 +20°C° 0 mm 3 mps 749 mmHg 68%
    19:00 +19°C° 0 mm 2 mps 749 mmHg 74%
    20:00 +17°C° 0 mm 2 mps 749 mmHg 77%
    21:00 +16°C° 0 mm 2 mps 749 mmHg 80%
    22:00 +15°C° 0 mm 2 mps 750 mmHg 83%
    23:00 +14°C° 0 mm 2 mps 750 mmHg 86%

    Pasado mañana, 16 Agosto, Jueves

    Tiempo Temperatura Precipitaciones Viento Presión Humedad
    00:00 +14°C° 0 mm 2 mps 750 mmHg 88%
    01:00 +13°C° 0 mm 2 mps 750 mmHg 90%
    02:00 +13°C° 0 mm 2 mps 750 mmHg 91%
    03:00 +13°C° 0 mm 2 mps 750 mmHg 92%
    04:00 +12°C° 0 mm 2 mps 750 mmHg 93%
    05:00 +13°C° 0 mm 2 mps 749 mmHg 89%
    06:00 +13°C° 0 mm 3 mps 749 mmHg 85%
    07:00 +16°C° 0 mm 3 mps 749 mmHg 81%
    08:00 +15°C° 0,2 mm 4 mps 748 mmHg 80%
    09:00 +16°C° 0,2 mm 5 mps 748 mmHg 78%
    10:00 +17°C° 0,2 mm 6 mps 747 mmHg 76%
    11:00 +17°C° 0,6 mm 6 mps 747 mmHg 81%
    12:00 +17°C° 0,6 mm 6 mps 746 mmHg 86%
    13:00 +17°C° 0,6 mm 6 mps 746 mmHg 90%
    14:00 +17°C° 0,4 mm 6 mps 746 mmHg 92%
    15:00 +17°C° 0,4 mm 5 mps 746 mmHg 93%
    16:00 +17°C° 0,4 mm 5 mps 746 mmHg 94%
    17:00 +18°C° 0,2 mm 4 mps 746 mmHg 94%
    18:00 +19°C° 0,2 mm 4 mps 746 mmHg 94%
    19:00 +19°C° 0,2 mm 3 mps 746 mmHg 94%
    20:00 +18°C° 0,1 mm 3 mps 746 mmHg 95%
    21:00 +17°C° 0,1 mm 3 mps 746 mmHg 96%
    22:00 +16°C° 0,1 mm 3 mps 747 mmHg 97%
    23:00 +14°C° 0 mm 3 mps 747 mmHg 97%

    17 Agosto, Viernes

    Tiempo Temperatura Precipitaciones Viento Presión Humedad
    00:00 +14°C° 0 mm 2 mps 747 mmHg 98%
    01:00 +13°C° 0 mm 2 mps 747 mmHg 98%
    02:00 +13°C° 0 mm 2 mps 747 mmHg 98%
    03:00 +12°C° 0 mm 2 mps 748 mmHg 98%
    04:00 +12°C° 0 mm 2 mps 748 mmHg 97%
    05:00 +12°C° 0 mm 2 mps 748 mmHg 97%
    06:00 +13°C° 0 mm 2 mps 748 mmHg 96%
    07:00 +13°C° 0 mm 2 mps 749 mmHg 95%
    08:00 +13°C° 0 mm 3 mps 749 mmHg 89%
    09:00 +16°C° 0 mm 3 mps 749 mmHg 83%
    10:00 +17°C° 0 mm 3 mps 749 mmHg 77%
    11:00 +19°C° 0 mm 3 mps 749 mmHg 71%
    12:00 +20°C° 0 mm 3 mps 749 mmHg 64%
    13:00 +21°C° 0 mm 3 mps 749 mmHg 58%
    14:00 +21°C° 0,1 mm 3 mps 749 mmHg 58%
    15:00 +21°C° 0,1 mm 3 mps 749 mmHg 59%
    16:00 +21°C° 0,1 mm 3 mps 749 mmHg 60%
    17:00 +19°C° 0,2 mm 3 mps 750 mmHg 66%
    18:00 +18°C° 0,2 mm 2 mps 750 mmHg 73%
    19:00 +17°C° 0,2 mm 2 mps 750 mmHg 79%
    20:00 +16°C° 0 mm 2 mps 750 mmHg 80%
    21:00 +14°C° 0 mm 2 mps 751 mmHg 82%
    22:00 +13°C° 0 mm 2 mps 751 mmHg 83%
    23:00 +13°C° 0 mm 2 mps 751 mmHg 84%

    18 Agosto, Sábado

    Tiempo Temperatura Precipitaciones Viento Presión Humedad
    00:00 +12°C° 0 mm 2 mps 751 mmHg 84%
    01:00 +10°C° 0 mm 2 mps 751 mmHg 85%
    02:00 +9°C° 0 mm 2 mps 752 mmHg 86%
    03:00 +9°C° 0 mm 2 mps 752 mmHg 86%
    04:00 +8°C° 0 mm 2 mps 752 mmHg 87%
    05:00 +9°C° 0 mm 2 mps 752 mmHg 85%
    06:00 +10°C° 0 mm 3 mps 753 mmHg 82%
    07:00 +11°C° 0 mm 3 mps 753 mmHg 79%
    08:00 +12°C° 0 mm 4 mps 753 mmHg 73%
    09:00 +14°C° 0 mm 4 mps 753 mmHg 67%
    10:00 +15°C° 0 mm 4 mps 753 mmHg 60%
    11:00 +17°C° 0 mm 4 mps 753 mmHg 58%
    12:00 +17°C° 0 mm 4 mps 753 mmHg 56%
    13:00 +18°C° 0 mm 4 mps 753 mmHg 54%
    14:00 +18°C° 0 mm 4 mps 753 mmHg 54%
    15:00 +18°C° 0 mm 4 mps 753 mmHg 55%
    16:00 +18°C° 0 mm 4 mps 753 mmHg 55%
    17:00 +17°C° 0 mm 4 mps 753 mmHg 60%
    18:00 +14°C° 0 mm 3 mps 753 mmHg 66%
    19:00 +13°C° 0 mm 3 mps 753 mmHg 71%
    20:00 +12°C° 0 mm 3 mps 754 mmHg 75%
    21:00 +12°C° 0 mm 2 mps 754 mmHg 79%
    22:00 +9°C° 0 mm 2 mps 754 mmHg 83%
    23:00 +9°C° 0 mm 2 mps 754 mmHg 85%

    19 Agosto, Domingo

    Tiempo Temperatura Precipitaciones Viento Presión Humedad
    00:00 +8°C° 0 mm 2 mps 755 mmHg 88%
    01:00 +8°C° 0 mm 2 mps 755 mmHg 90%
    02:00 +7°C° 0 mm 2 mps 755 mmHg 91%
    03:00 +7°C° 0 mm 2 mps 755 mmHg 92%
    04:00 +7°C° 0 mm 2 mps 755 mmHg 93%
    05:00 +8°C° 0 mm 2 mps 756 mmHg 89%
    06:00 +10°C° 0 mm 1 mps 756 mmHg 85%
    07:00 +11°C° 0 mm 1 mps 756 mmHg 81%
    08:00 +13°C° 0 mm 2 mps 756 mmHg 73%
    09:00 +15°C° 0 mm 2 mps 756 mmHg 65%
    10:00 +17°C° 0 mm 2 mps 755 mmHg 57%
    11:00 +18°C° 0 mm 2 mps 755 mmHg 54%
    12:00 +18°C° 0 mm 2 mps 755 mmHg 51%
    13:00 +19°C° 0 mm 2 mps 754 mmHg 47%
    14:00 +19°C° 0 mm 2 mps 754 mmHg 48%
    15:00 +20°C° 0 mm 2 mps 754 mmHg 48%
    16:00 +20°C° 0 mm 2 mps 754 mmHg 49%
    17:00 +18°C° 0 mm 2 mps 754 mmHg 55%
    18:00 +18°C° 0 mm 1 mps 754 mmHg 62%
    19:00 +16°C° 0 mm 1 mps 753 mmHg 69%
    20:00 +14°C° 0 mm 1 mps 754 mmHg 72%
    21:00 +13°C° 0 mm 1 mps 754 mmHg 75%
    22:00 +12°C° 0 mm 1 mps 754 mmHg 78%
    23:00 +11°C° 0 mm 1 mps 754 mmHg 80%
    Mostrar más